Regional Weather Roundup
Issued by NWS Upton, NY

Current Version | Previous Version | Graphics & Text | Print | Product List | Glossary Off
Versions: 1 2 3 4 5 6 7 8 9 10 11 12 13 14 15 16 17 18 19 20 21 22 23 24 25 26 27 28 29 30 31 32 33 34 35 36 37 38 39 40 41 42 43 44 45 46 47 48 49 50

974
ASUS41 KOKX 291309
RWROKX

REGIONAL WEATHER ROUNDUP
NATIONAL WEATHER SERVICE NEW YORK NY
900 AM EDT MON MAY 29 2017

NOTE: "FAIR" INDICATES FEW OR NO CLOUDS BELOW 12,000 FEET WITH NO
SIGNIFICANT WEATHER AND/OR OBSTRUCTIONS TO VISIBILITY.

NYZ071-072-176-178-NJZ106-104-291400-
NEW YORK CITY METRO AREA

CITY           SKY/WX    TMP DP  RH WIND       PRES   REMARKS
Central Park   LGT RAIN  57  55  93 VRB5      29.93R
Wall St Helipt CLOUDY    57  55  94 NE12      29.92R
Bronx Bot Gard   N/A     55  54  94 E7        29.91R
LaGuardia APRT LGT RAIN  58  54  86 E10       29.90R
Kennedy INTL   LGT RAIN  58  55  90 E9        29.91R
Breezy Point     N/A     55 N/A N/A E13G18      N/A
Newark/Liberty LGT RAIN  58  55  90 E7        29.91R
Teterboro      LGT RAIN  57  54  89 VRB5      29.90R
$$

NYZ177-179-078>081-291400-
LONG ISLAND NEW YORK

CITY           SKY/WX    TMP DP  RH WIND       PRES   REMARKS
Jones Beach      N/A     55 N/A N/A E15G22      N/A
Matinecock PT  NOT AVBL
Farmingdale    CLOUDY    56  53  90 E9        29.91R
MacArthur/ISP  LGT RAIN  55  53  93 E9        29.91R
Shirley        RAIN      53  53 100 VRB6      29.91S FOG
Mt Sinai Harb    N/A     54 N/A N/A E12         N/A
Westhampton    LGT RAIN  53  50  89 E12       29.92R
East Hampton   LGT RAIN  51  50  93 E9G18     29.92R
Montauk          N/A     52  51  97 E13G21    29.94F
$$

NYZ052-065-067-291400-
HUDSON VALLEY

CITY           SKY/WX    TMP DP  RH WIND       PRES   REMARKS
White Plains   CLOUDY    55  52  89 E13G18    29.91R
Larchmont Harb   N/A     55 N/A N/A NE24        N/A
Croton O-T Hud   N/A     55 N/A N/A E2          N/A
Newburgh       LGT RAIN  55  55 100 E12       29.92S FOG
Montgomery     LGT RAIN  56  54  93 N6        29.92R
Poughkeepsie   LGT RAIN  56  53  90 E3        29.91S
Albany         CLOUDY    56  51  84 SE6       29.93R
$$

NJZ001-105-106-008-010-013-015-019>022-104-291400-
NEW JERSEY

CITY           SKY/WX    TMP DP  RH WIND       PRES   REMARKS
Newark/Liberty LGT RAIN  58  55  90 E7        29.91R
Teterboro      LGT RAIN  57  54  89 VRB5      29.90R
Caldwell       CLOUDY    58  54  86 E7        29.91S
Somerville     LGT RAIN  58  56  93 CALM      29.88R
Linden         LGT RAIN  58  54  86 CALM      29.91R
Perth Amboy      N/A     57 N/A N/A E12         N/A
Sussex         LGT RAIN  57  54  89 CALM      29.91R
Andover          N/A     56  52  86 CALM      29.91R
Trenton        LGT RAIN  57  55  93 SE3       29.90R FOG
Millville      CLOUDY    60  60 100 NE9       29.87R FOG
Atlantic City  CLOUDY    59  32  36 NE12      29.87
Wrightstown    CLOUDY    57  55  94 E12       29.88R
Toms River     CLOUDY    57  56  96 E9        29.89S
Belmar         LGT RAIN  57  55  93 E8        29.91R
$$

PAZ047>061-062-071-291400-
EASTERN PENNSYLVANIA

CITY           SKY/WX    TMP DP  RH WIND       PRES   REMARKS
Philadelphia   CLOUDY    59  56  89 NE7       29.89R
Allentown      LGT RAIN  57  54  89 E5        29.90R
Scranton       LGT RAIN  57  54  89 NE7       29.87S
$$

CTZ002-004>006-009-010-012-RIZ004-006-007-MAZ004-011-015-291400-
SOUTHERN NEW ENGLAND
 IN CT

CITY           SKY/WX    TMP DP  RH WIND       PRES   REMARKS
Bradley INTL   CLOUDY    57  49  74 E7        29.96S
Hartford       CLOUDY    56  50  80 E3        29.96R
Danbury        CLOUDY    54  51  90 E7        29.94R
Wtrbury/Oxford CLOUDY    54  46  76 SE7       29.95R
Bridgeport     CLOUDY    56  52  86 E21       29.93R
Meriden        CLOUDY    54  51  90 E3        29.95R
New Haven      CLOUDY    54  52  93 E7        29.94R FOG
Chester        LGT RAIN  52  52 100 NE7       29.95R
Groton         RAIN      53  50  89 NE14      29.94S FOG
Wilimantic     CLOUDY    56  51  84 NE7       29.96S

 IN RI

CITY           SKY/WX    TMP DP  RH WIND       PRES   REMARKS
Providence     RAIN      51  51 100 NE10      29.98F FOG
Block Island   CLOUDY    51  50  96 E14G21    29.96R
Westerly       LGT RAIN  54  51  90 E12       29.96S
 IN MA

CITY           SKY/WX    TMP DP  RH WIND       PRES   REMARKS
Boston         FOG       49  49 100 E14       30.03S VSB 1/2
Worcester      CLOUDY    50  47  89 E7        29.99S
Westfield      NOT AVBL
Provincetown   CLOUDY    49  47  93 E14       30.02F
Nantucket      LGT RAIN  49  47  93 NE15      29.98F
$$

ANZ330-335-338-340-345-350-353-355-291400-
COASTAL MARINE OBSERVATIONS


STATION/POSITION TIME  SKY/WX   TEMP    WIND        PRES    VSBY  WAVE
                                AIR SEA DIR/SP/G                  HT/PER
                 (UTC)          (F)     (DEG/KT/KT) (MB)    (MI)  (FT/S)
NY HARB ENTRANCE 1150            56 58   70/ 17/ 21 1010.9          6/ 7
20 S FIRE ISLAND 1150            56 56   80/ 17/ 19 1010.8          6/ 7
GREAT SOUTH BAY  1230            56 63   70/ 19/ 23   N/A
23 SSW MONTAUK P 1150            54 54              1012.9          5/ 5
15 E BARNEGAT LI 1230               59                N/A           7/ 7
HUDSON CANYON    1150            55 53   80/ 21/ 25 1008.9          8/ 8
KINGS POINT      1248            57 59  110/  3/  6 1012.8
EXECUTION ROCKS  1245            57      80/ 16/ 21   N/A
CENTRAL LI SOUND NOT AVBL
EASTERN LI SOUND NOT AVBL
ROBBINS REEF     1248            58      80/  9/ 12 1013.1
$$


>>>>>>>>>>>>>>>>>>>>>>>>>>>> KEY <<<<<<<<<<<<<<<<<<<<<<<<<<<
>                                                          <
>     SKY/WX - Sky Condition/Present Weather               <
>     TMP    - Temperature in Fahrenheit                   <
>     DP     - Dew Point in Fahrenheit                     <
>     RH     - Relative Humidity in Percent                <
>     WIND   - Direction (from) and Speed in MPH           <
>     PRES   - Mean Sea Level Pressure (inches of Hg)      <
>     WCI    - Wind Chill Index                            <
>     VSB    - VISIBILITY IN MILES                         <
>     HX     - HEAT INDEX                                  <
>     TC     - TEMPERATURE IN CELSIUS                      <
>     VRB    - VARIABLE WIND DIRECTION                     <
>                                                          <
>>>>>>>>>>>>>>>>>>>>>>>>>>>> KEY <<<<<<<<<<<<<<<<<<<<<<<<<<<




USA.gov is the U.S. government's official web portal to all federal, state and local government web resources and services.